Location: ??
(35.5052°N, 139.7262°E)
Time: 03:46:15
(UTC+00:00)

ATLAS CENTAUR R/B - Pass Details

Date: 20 June 2021
Orbit: 472 x 671 km, 64.6° (Epoch: 13 June)

Event Time Altitude Azimuth Distance (km) Brightness Sun altitude
Rises 12:10:27 0° 337° (NNW) 2,826 6.4 -20.9°
Reaches altitude 10° 12:12:43 10° 343° (NNW) 1,954 5.1 -21.2°
Maximum altitude 12:17:00 46° 57° (ENE) 846 2.1 -21.7°
Enters shadow 12:17:40 43° 83° (E) 893 2.1 -21.8°
